Weather in Volodarsk

Russia / Nizhny Novgorod Oblast'     56°13′01″N   43°09′35″E
temp.,
°C
wind,
m/s
gust,
m/s
humid.,
%
clouds,
%
prec.,
mm/h
press.,
hPa
HPBL,
m
18 may, tue
tue1800:00+18ese3109545 0.3 1015207
03:00+16sse228771 0.3 101529
06:00+18ese2777100 0.0 1014147
09:00+24ese4655100 0.0 1014347
12:00+27se574694 0.0 1014889
15:00+28ese57465 0.0 10141299
18:00+25ese511595 0.0 1013575
21:00+21ese513825 0.0 1013349
19 may, wed
wed1900:00+19ese514800 0.0 1013359
03:00+18ese514825 0.0 1013349
06:00+18ese514795 0.0 1013424
09:00+23ese612605 0.0 1013547
12:00+26ese710515 0.0 1013925
15:00+27se711550 0.0 10121508
18:00+25ese612630 0.0 1012986
21:00+20ese616730 0.0 1012551
20 may, thu
thu2000:00+18ese516705 0.0 1011497
03:00+17ese51570100 0.0 1011447
06:00+18se514740 0.0 1011554
09:00+22se79630 0.0 1010937
12:00+24se7105653 0.0 10101680
15:00+22sse6107072 2.0 10101264
18:00+20sse488199 2.1 1009641
21:00+16sse2391100 3.5 100956
21 may, fri
fri2100:00+14s259480 0.6 1009117
03:00+13s239399 0.6 100870
06:00+14ssw389167 0.0 1008350
09:00+18ssw58705 0.3 1008986
12:00+17sw697199 0.8 1010951
15:00+17wsw686616 1.3 10111274
18:00+14wsw5107714 0.8 10131180
21:00+11wsw498062 0.8 1016576
22 may, sat
sat2200:00+10wsw3887100 0.0 1017236
03:00+10sw2289100 0.0 101835
06:00+12ese1180100 0.0 101879
09:00+11ssw0194100 2.3 102079
12:00+10ne3696100 6.0 1019309
15:00+10ene3797100 7.3 1019324
18:00+11nne2597100 0.1 1019268
21:00+9ne269829 0.1 1019147